Location: Gälforsberget
(66.6500°N, 22.4167°E)
Time: 21:29:25
(UTC+00:00)

Cosmos 1954 Rocket - Pass Details

Date: 11 April 2026
Orbit: 748 x 776 km, 74.0° (Epoch: 11 May)

Event Time Altitude Azimuth Distance (km) Brightness Sun altitude
Rises 21:25:13 0° 314° (NW) 3,267 8.4 -13.8°
Reaches altitude 10° 21:27:37 10° 316° (NW) 2,334 7.5 -13.9°
Maximum altitude 21:32:57 79° 44° (NE) 793 4.1 -14.0°
Enters shadow 21:37:23 15° 130° (SE) 1,994 5.7 -14.1°
